Location: Seagrave Observatory
(41.8500°N, 71.5833°W)
Time: 05:55:29
(UTC-05:00)

Daily predictions for brighter satellites

Satellite Brightness Start Highest point End
(mag) Time Altitude Azimuth Time Altitude Azimuth Time Altitude Azimuth
Cosmos 2237 Rocket 3.7 03:54:16 31° SE 03:54:16 31° SE 03:57:16 10° SE
SL-16 R/B 3.9 03:53:48 26° NE 03:54:39 27° NE 03:59:24 10° ESE
Cosmos 2297 Rocket 3.1 04:05:03 46° E 04:05:03 46° E 04:10:01 10° NE
Cosmos 2227 Rocket 3.0 04:18:46 44° NNE 04:18:46 44° NNE 04:22:35 10° NNE
Cosmos 540 Rocket 4.3 04:18:40 46° ESE 04:18:40 46° ESE 04:22:37 10° SE
Cosmos 1725 Rocket 4.2 04:16:05 10° S 04:22:16 67° E 04:28:30 10° NNE
Meteor 1-21 Rocket 4.5 04:28:00 61° SSE 04:28:00 61° SSE 04:32:35 10° SSE
ISS -0.3 04:33:19 15° ENE 04:33:19 15° ENE 04:34:09 10° E
USA 234 4.2 04:31:35 10° E 04:37:33 39° NNE 04:40:03 29° NNW
SL-08 R/B 4.4 04:43:20 66° NW 04:43:20 66° NW 04:48:49 10° N
Cosmos 2082 3.7 04:45:40 64° NNW 04:45:40 64° NNW 04:50:49 10° NNE
Cosmos 2333 Rocket 3.6 04:50:14 24° SSW 04:50:14 24° SSW 04:52:42 10° S
Ariane Rocket 4.3 04:49:31 10° NNE 04:54:21 41° E 04:59:09 10° S
Cosmos 2219 Rocket 4.4 05:11:11 10° SSW 05:11:11 10° SSW 05:11:13 10° SSW
Cosmos 1743 Rocket 3.4 05:09:30 66° WNW 05:09:50 70° W 05:14:12 10° S
Cosmos 1328 4.0 05:09:48 27° N 05:11:51 71° E 05:15:49 10° SSE
Cosmos 2233 Rocket 3.9 05:06:38 10° S 05:12:52 81° W 05:19:13 10° N
Cosmos 2058 4.0 05:12:45 10° N 05:16:43 44° ENE 05:20:40 10° SSE
Cosmos 1842 Rocket 3.3 05:15:14 10° SSW 05:19:33 75° W 05:23:56 10° N
COSMO-SKYMED 1 2.5 05:15:48 10° S 05:20:04 59° W 05:21:11 44° NW
CZ-2C R/B 4.3 05:20:46 10° NE 05:24:48 30° E 05:28:48 10° SSE
NOAA 6 4.2 05:21:16 10° N 05:26:14 48° WNW 05:31:12 10° SW
SeaSat 1 4.3 05:23:41 10° N 05:25:11 15° NNW 05:25:11 15° NNW
Cosmos 968 Rocket 3.4 05:22:35 10° SSW 05:27:50 79° WNW 05:33:09 10° NNE
CSL-04 Rocket 3.8 05:23:49 10° NNE 05:29:08 73° ESE 05:34:24 10° S
BREEZE-M DEB (TANK) 4.0 05:31:43 23° N 05:31:47 23° N 05:33:52 10° NE
Cosmos 2151 2.8 05:29:48 10° N 05:34:03 83° W 05:38:16 10° S
Cosmos 2237 Rocket 3.5 05:36:10 21° WSW 05:36:10 21° WSW 05:39:34 10° SSW
Genesis I 4.3 05:33:32 17° NNW 05:36:14 41° NE 05:39:58 10° ESE
Cosmos 773 Rocket 4.4 05:31:04 10° NNW 05:36:20 65° ENE 05:41:35 10° SSE
Cosmos 1500 Rocket 3.7 05:34:37 21° NNW 05:37:18 48° W 05:41:35 10° SSW
USA 229 DEB 4.0 05:33:34 24° NW 05:37:44 48° WSW 05:44:37 10° S
USA 229 4.0 05:33:38 23° NW 05:37:50 49° WSW 05:44:44 10° S
SL-16 R/B 2.4 05:35:44 23° NW 05:39:00 48° WSW 05:44:25 10° S
Cosmos 1703 4.1 05:40:14 10° N 05:44:04 52° E 05:47:54 10° SSE
Cosmos 2297 Rocket 3.1 05:46:57 23° W 05:48:52 27° NW 05:53:40 10° N
Meteor 1-11 4.2 05:45:28 10° NNW 05:51:15 68° W 05:57:00 10° S
NOSS 3-1 (A) 4.2 05:44:02 10° NNW 05:51:40 78° NE 06:00:02 10° SE
Cosmos 1340 Rocket 2.7 05:49:56 10° NNW 05:53:51 69° W 05:57:46 10° S
Sich 1 4.0 05:52:42 10° N 05:56:58 48° ENE 06:01:09 10° SSE
Aureole 2 Rocket 4.3 05:57:16 20° W 05:57:32 20° W 06:00:36 10° SW
Cosmos 1633 Rocket 4.3 05:53:29 10° N 05:57:39 43° ENE 06:01:47 10° SSE
Cosmos 1777 Rocket 3.9 05:52:43 10° SSW 05:57:56 81° WNW 06:03:11 10° NNE
SJ-12 4.1 05:55:05 10° NNE 05:59:12 77° ESE 06:03:15 10° S
ATLAS 2AS CENTAUR R/B 4.2 05:52:48 10° NNW 06:00:10 36° NE 06:07:09 10° ESE
Cosmos 2227 Rocket 3.5 06:00:39 17° WNW 06:01:38 18° NW 06:05:25 10° N
Cosmos 1464 Rocket 4.0 05:55:27 10° SSW 06:01:47 75° W 06:08:06 10° N
IRS-1A Rocket 4.4 05:55:52 10° NNE 06:01:49 89° WNW 06:07:39 10° SSW
Meteor 1-16 Rocket 4.3 05:57:00 10° SSW 06:02:13 47° WNW 06:07:22 10° N
Cosmos 1271 Rocket 2.9 05:59:56 10° SSW 06:03:37 44° WNW 06:07:16 10° N
IDEFIX/ARIANE 42P 2.8 05:58:57 10° NNE 06:04:15 77° ESE 06:09:31 10° S
Cosmos 1184 Rocket 3.5 06:02:45 10° N 06:06:01 56° ENE 06:09:16 10° SSE
SL-14 R/B 4.0 06:03:03 10° NNW 06:06:41 32° W 06:10:19 10° SSW
ISS -2.8 06:06:00 20° WNW 06:07:52 45° SW 06:10:59 10° SSE
OAO 2 Rocket 4.4 06:04:02 11° WSW 06:08:11 34° S 06:12:38 10° SE
Meteor 1-28 Rocket 4.4 06:05:23 10° SSW 06:08:25 23° W 06:10:38 14° NW
Meteor 1-4 Rocket 4.0 06:10:21 10° WSW 06:13:00 18° WNW 06:15:42 10° NNW
Cosmos 1484 Rocket 4.4 06:09:26 10° NNE 06:13:15 41° E 06:17:01 10° S
YAOGAN 1 2.8 06:10:21 10° NNE 06:14:42 76° ESE 06:19:01 10° S
CZ-4 R/B 1.4 06:15:34 10° N 06:19:34 61° WNW 06:23:36 10° SSW
USA 234 3.3 06:13:39 10° SE 06:20:13 79° SW 06:26:49 10° NW
Meteor 2-1 Rocket 4.3 06:14:55 10° SSW 06:20:21 53° WNW 06:25:58 10° N
Cosmos 1943 3.6 06:17:16 10° NNW 06:22:58 68° ENE 06:28:38 10° SSE
ERBS 2.7 06:23:54 11° NW 06:27:01 49° SW 06:30:19 10° SSE
Cosmos 1626 2.2 06:23:39 10° NNW 06:27:20 57° W 06:31:00 10° S
Cosmos 1666 Rocket 3.6 06:23:24 10° NNW 06:27:50 71° W 06:32:17 10° S
Cosmos 923 Rocket 4.1 06:24:13 10° NNW 06:29:23 62° WSW 06:34:32 10° S
Meteor 1-29 3.1 06:27:37 10° SSE 06:31:06 83° ENE 06:34:38 10° N
Ariane Rocket 4.0 06:28:58 10° N 06:33:04 25° WNW 06:37:10 10° WSW
NOSS 3-1 (C) 4.4 06:25:53 10° NW 06:33:17 52° WSW 06:41:19 10° S
PSLV R/B 3.9 06:31:15 10° WSW 06:34:35 56° SSE 06:37:51 10° E
Coronas F rocket 0.9 06:33:44 10° NNW 06:36:07 65° W 06:38:30 10° S
Cosmos 2221 3.4 06:32:55 10° SW 06:36:41 28° WNW 06:40:27 10° NNW
Cosmos 1680 Rocket 3.6 06:33:28 10° NNW 06:38:44 68° WSW 06:44:00 10° S
SL-8 R/B 3.8 06:34:34 10° WNW 06:39:24 80° NNE 06:44:12 10° ESE
Cosmos 1933 Rocket 4.4 06:35:04 10° N 06:39:28 57° E 06:43:50 10° SSE
MSX 3.8 06:36:09 10° NNE 06:41:56 80° WNW 06:47:42 10° SSW
CORIOLIS 4.2 06:37:17 10° N 06:42:41 69° WNW 06:48:04 10° SSW
